Flag for Cyprus Weather past 2 weeks in Limassol, Cyprus

Now
82 °F

Passing clouds.


Feels Like: 89 °F
Forecast: 70 / 89 °F
Wind: 14 mph from West

Location: Akrotiri

Current Time: Aug 1, 2014 at 7:56:50 PM

Latest Report: Aug 1, 2014 at 6:50 PM


Visibility: N/A

Pressure: 29.65 "Hg

Humidity: 79%

Dew point: 75 °F

Location of LimassolLocation

Historic Weather in Limassol — Graph

°F

Limassol temperature yesterday

Maximum temperature yesterday: 84 °F (at 11:50 AM)
Minimum temperature yesterday: 72 °F (at 5:50 AM)
Average temperature yesterday: 79 °F

Past Weeks' High & Low Weather Summary

 TemperatureHumidityPressure
High88 °F (Jul 23, 1:50 PM)94% (Jul 20, 1:50 AM)29.86 "Hg (Jul 20, 1:50 AM)
Low72 °F (Jul 18, 5:50 AM)42% (Jul 24, 8:50 AM)29.62 "Hg (Jul 20, 3:50 AM)
Average79 °F76%29.72 "Hg
* Reported Jul 17 6:50 PM — Aug 1 6:50 PM, Limassol, Weather by CustomWeather, © 2014

Note: Actual official high and low records may vary slightly from our data, if they occured in-between our weather recording intervals... More about our weather records

Advertising

Limassol weather history for previous 24 hours

 ConditionsComfort  
Time TempWeatherWind HumidityBarometerVisibility
6:50 PM
Aug 1
82 °FPassing clouds.14 mph79%29.65 "HgN/A
5:50 PM84 °FPassing clouds.15 mph74%29.65 "HgN/A
4:50 PM84 °FPassing clouds.15 mph74%29.68 "HgN/A
3:50 PM84 °FPassing clouds.15 mph70%29.68 "HgN/A
2:50 PM84 °FPassing clouds.15 mph70%29.68 "HgN/A
1:50 PM86 °FPassing clouds.14 mph66%29.71 "HgN/A
12:50 PM84 °FPassing clouds.12 mph70%29.71 "HgN/A
11:50 AM84 °FPassing clouds.10 mph70%29.71 "HgN/A
10:50 AM84 °FPassing clouds.9 mph70%29.71 "HgN/A
9:50 AM82 °FScattered clouds.8 mph74%29.71 "HgN/A
9:34 AM82 °FPartly sunny.7 mph74%29.71 "HgN/A
8:50 AM81 °FPassing clouds.2 mph79%29.71 "HgN/A
7:50 AM79 °FPassing clouds.3 mph84%29.71 "HgN/A
6:50 AM75 °FPassing clouds.2 mph89%29.71 "HgN/A
5:50 AM73 °FPassing clouds.1 mph89%29.68 "HgN/A
4:50 AM73 °FPassing clouds.1 mph89%29.68 "HgN/A
3:50 AM73 °FPassing clouds.2 mph89%29.68 "HgN/A
2:50 AM73 °FClear.2 mph89%29.68 "Hg10 mi
1:50 AM75 °FClear.7 mph94%29.68 "Hg10 mi
12:50 AM77 °FPassing clouds.8 mph89%29.71 "HgN/A
11:50 PM
Jul 31
77 °FPassing clouds.9 mph94%29.68 "HgN/A
10:50 PM79 °FPassing clouds.7 mph89%29.68 "HgN/A
9:50 PM79 °FClear.8 mph84%29.68 "Hg10 mi
8:50 PM79 °FSunny.10 mph89%29.68 "Hg10 mi
7:50 PM81 °FPassing clouds.13 mph79%29.65 "HgN/A
Weather by CustomWeather, © 2014

See weather overviewHow to use our weather pages